GSAT0226 (GALILEO 31) (61183 NORAD) Tracking and Keplerian Element Data

This shows tracking and keplerian element data for the satellite.

Feedback or suggestion? Click here.




ElementValue
Catalog61183
NameGSAT0226 (GALILEO 31)
Epoch Orbit40
Epoch Day286.19680435
Epoch Year2024
RAAN238.1429
Inclination55.4022
Eccentricity0.0032788
Argument of Perigee98.0142
Mean Anonmoly262.3371
Mean Motion1.7138151
Decay Rate1.4E-07
L11 61183U 24167B 24286.19680435 .00000014 00000+0 00000+0 0 9990
L22 61183 55.4022 238.1429 0032788 98.0142 262.3371 1.71381510 405



Live tracking and technical data element details for GSAT0226 (GALILEO 31) (NORAD 61183). GSAT0226 (GALILEO 31) can be tracked NOW for your location showing map with azimuth and elevation plus other details from your city location.







IsCatalogInMostPopularTable: catalog: 61183, numindb: 26
Update: records affected: 1



GetName: 61183 GSAT0226 (GALILEO 31)

Hit Count: updated at: Wed, 04 Dec 2024 09:05:40 GMT